| time (UTC) | temp F | wind direction | speed MPH | gust MPH | rain 1hr in | rain 24hr in | rain mn in | humidity % | barometer mb |
| 20260502233502 | 55 | 139 | 0.0 | 1.0 | 0.00 | 0.14 | 0.10 | 84 | 1011.8 |
| 20260502232503 | 56 | 176 | 0.0 | 0.0 | 0.00 | 0.14 | 0.10 | 83 | 1011.7 |
| 20260502232003 | 56 | 176 | 0.0 | 1.0 | 0.00 | 0.14 | 0.10 | 83 | 1011.7 |
| 20260502231502 | 56 | 93 | 0.0 | 0.0 | 0.00 | 0.14 | 0.10 | 82 | 1011.7 |
| 20260502231002 | 56 | 108 | 0.0 | 1.0 | 0.00 | 0.14 | 0.10 | 82 | 1011.6 |
| 20260502230502 | 56 | 250 | 0.0 | 1.0 | 0.00 | 0.14 | 0.10 | 81 | 1011.6 |
| 20260502230002 | 56 | 324 | 1.0 | 1.0 | 0.00 | 0.14 | 0.10 | 81 | 1011.6 |
| 20260502225502 | 55 | 324 | 0.0 | 1.0 | 0.00 | 0.14 | 0.10 | 80 | 1011.6 |
| 20260502225002 | 56 | 345 | 0.0 | 1.0 | 0.00 | 0.14 | 0.10 | 81 | 1011.6 |
| 20260502224503 | 56 | 246 | 0.0 | 1.0 | 0.00 | 0.14 | 0.10 | 80 | 1011.6 |
| 20260502224002 | 56 | 338 | 0.0 | 1.0 | 0.00 | 0.14 | 0.10 | 81 | 1011.6 |
| 20260502223503 | 56 | 255 | 0.0 | 1.0 | 0.00 | 0.14 | 0.10 | 80 | 1011.6 |
| 20260502223002 | 56 | 204 | 0.0 | 0.0 | 0.00 | 0.14 | 0.10 | 80 | 1011.6 |
| 20260502222002 | 56 | 297 | 0.0 | 1.0 | 0.00 | 0.14 | 0.10 | 80 | 1011.5 |
| 20260502221502 | 56 | 282 | 1.0 | 2.0 | 0.00 | 0.14 | 0.10 | 80 | 1011.5 |
| 20260502220502 | 56 | 119 | 0.0 | 1.0 | 0.00 | 0.14 | 0.10 | 81 | 1011.4 |
| 20260502220002 | 56 | 169 | 0.0 | 2.0 | 0.00 | 0.14 | 0.10 | 81 | 1011.4 |
| 20260502215502 | 56 | 202 | 1.0 | 3.0 | 0.00 | 0.14 | 0.10 | 80 | 1011.3 |
| 20260502215003 | 56 | 307 | 1.0 | 1.0 | 0.00 | 0.14 | 0.10 | 81 | 1011.2 |
| 20260502214503 | 56 | 188 | 0.0 | 2.0 | 0.00 | 0.14 | 0.10 | 80 | 1011.2 |
| 20260502214003 | 56 | 210 | 0.0 | 2.0 | 0.00 | 0.14 | 0.10 | 79 | 1011.2 |
| 20260502213503 | 56 | 273 | 0.0 | 2.0 | 0.00 | 0.14 | 0.10 | 78 | 1011.1 |
| 20260502213002 | 57 | 191 | 0.0 | 1.0 | 0.00 | 0.14 | 0.10 | 78 | 1011.3 |
| 20260502212502 | 57 | 170 | 0.0 | 2.0 | 0.00 | 0.14 | 0.10 | 78 | 1011.3 |
| 20260502212002 | 57 | 4 | 0.0 | 1.0 | 0.00 | 0.14 | 0.10 | 79 | 1011.2 |
| 20260502211502 | 57 | 18 | 0.0 | 1.0 | 0.00 | 0.14 | 0.10 | 80 | 1011.2 |
| 20260502211003 | 57 | 239 | 0.0 | 1.0 | 0.00 | 0.14 | 0.10 | 78 | 1011.3 |
| 20260502210503 | 56 | 188 | 1.0 | 3.0 | 0.00 | 0.14 | 0.10 | 79 | 1011.3 |
| 20260502205502 | 57 | 186 | 1.0 | 2.0 | 0.00 | 0.14 | 0.10 | 77 | 1011.2 |
| 20260502205002 | 57 | 310 | 1.0 | 2.0 | 0.00 | 0.14 | 0.10 | 77 | 1011.3 |
| 20260502204502 | 57 | 226 | 0.0 | 1.0 | 0.00 | 0.14 | 0.10 | 78 | 1011.3 |
| 20260502204002 | 57 | 115 | 0.0 | 0.0 | 0.00 | 0.14 | 0.10 | 78 | 1011.4 |
| 20260502203502 | 57 | 192 | 0.0 | 1.0 | 0.00 | 0.14 | 0.10 | 76 | 1011.4 |
| 20260502203003 | 57 | 284 | 1.0 | 2.0 | 0.00 | 0.14 | 0.10 | 75 | 1011.4 |
| 20260502202503 | 57 | 207 | 2.0 | 3.0 | 0.00 | 0.14 | 0.10 | 74 | 1011.3 |
| 20260502202002 | 58 | 152 | 1.0 | 3.0 | 0.00 | 0.14 | 0.10 | 76 | 1011.2 |
| 20260502201502 | 57 | 162 | 0.0 | 3.0 | 0.00 | 0.14 | 0.10 | 75 | 1011.1 |
| 20260502201003 | 57 | 254 | 1.0 | 3.0 | 0.00 | 0.14 | 0.10 | 75 | 1011.1 |
| 20260502200503 | 57 | 304 | 2.0 | 5.0 | 0.00 | 0.14 | 0.10 | 77 | 1011.0 |
| 20260502200002 | 57 | 190 | 2.0 | 6.0 | 0.00 | 0.14 | 0.10 | 76 | 1011.1 |
| 20260502195502 | 58 | 23 | 1.0 | 3.0 | 0.00 | 0.14 | 0.10 | 76 | 1011.3 |
| 20260502195003 | 58 | 98 | 1.0 | 3.0 | 0.00 | 0.14 | 0.10 | 76 | 1011.4 |
| 20260502194003 | 57 | 244 | 1.0 | 3.0 | 0.00 | 0.14 | 0.10 | 75 | 1011.4 |
| 20260502193502 | 57 | 196 | 1.0 | 5.0 | 0.00 | 0.14 | 0.10 | 75 | 1011.6 |
| 20260502192502 | 57 | 97 | 0.0 | 3.0 | 0.00 | 0.14 | 0.10 | 80 | 1011.6 |
| 20260502192003 | 57 | 99 | 0.0 | 2.0 | 0.00 | 0.14 | 0.10 | 80 | 1011.5 |
| 20260502191502 | 57 | 267 | 0.0 | 2.0 | 0.00 | 0.14 | 0.10 | 79 | 1011.6 |
| 20260502191003 | 57 | 71 | 1.0 | 2.0 | 0.00 | 0.14 | 0.10 | 78 | 1011.6 |
| 20260502190502 | 57 | 171 | 0.0 | 2.0 | 0.00 | 0.14 | 0.10 | 79 | 1011.7 |
| 20260502190003 | 57 | 174 | 2.0 | 3.0 | 0.00 | 0.14 | 0.10 | 76 | 1011.8 |
| 20260502185502 | 57 | 304 | 1.0 | 3.0 | 0.00 | 0.14 | 0.10 | 77 | 1011.8 |
| 20260502185003 | 56 | 347 | 1.0 | 3.0 | 0.00 | 0.14 | 0.10 | 79 | 1011.8 |
| 20260502184502 | 56 | 215 | 1.0 | 3.0 | 0.00 | 0.14 | 0.10 | 83 | 1011.8 |
| 20260502184003 | 56 | 332 | 2.0 | 3.0 | 0.00 | 0.14 | 0.10 | 79 | 1011.9 |
| 20260502183003 | 56 | 250 | 1.0 | 3.0 | 0.00 | 0.14 | 0.10 | 81 | 1011.9 |
| 20260502182502 | 55 | 240 | 1.0 | 3.0 | 0.00 | 0.14 | 0.10 | 81 | 1012.0 |
| 20260502182003 | 55 | 63 | 1.0 | 2.0 | 0.00 | 0.14 | 0.10 | 83 | 1012.2 |
| 20260502181002 | 55 | 251 | 0.0 | 2.0 | 0.00 | 0.14 | 0.10 | 82 | 1012.3 |
| 20260502180502 | 55 | 205 | 1.0 | 3.0 | 0.00 | 0.14 | 0.10 | 82 | 1012.3 |
| 20260502170503 | 54 | 286 | 1.0 | 3.0 | 0.00 | 0.14 | 0.10 | 84 | 1012.5 |
| 20260502164003 | 54 | 90 | 0.0 | 1.0 | 0.01 | 0.14 | 0.10 | 90 | 1013.2 |
| 20260502163503 | 54 | 80 | 0.0 | 1.0 | 0.01 | 0.14 | 0.09 | 88 | 1013.3 |
| 20260502163002 | 54 | 229 | 1.0 | 2.0 | 0.02 | 0.14 | 0.09 | 88 | 1013.5 |
| 20260502162503 | 54 | 29 | 1.0 | 2.0 | 0.02 | 0.14 | 0.09 | 89 | 1013.6 |
| 20260502161503 | 54 | 62 | 0.0 | 2.0 | 0.01 | 0.13 | 0.10 | 89 | 1013.8 |
| 20260502161003 | 54 | 21 | 1.0 | 2.0 | 0.01 | 0.13 | 0.10 | 87 | 1013.8 |
| 20260502160502 | 54 | 23 | 1.0 | 2.0 | 0.01 | 0.13 | 0.09 | 87 | 1013.8 |
| 20260502152003 | 54 | 27 | 0.0 | 2.0 | 0.02 | 0.11 | 0.09 | 87 | 1013.3 |
| 20260502151502 | 54 | 37 | 1.0 | 2.0 | 0.02 | 0.11 | 0.09 | 88 | 1013.5 |
| 20260502151003 | 54 | 7 | 1.0 | 2.0 | 0.02 | 0.10 | 0.09 | 87 | 1013.4 |
| 20260502150503 | 54 | 242 | 0.0 | 1.0 | 0.02 | 0.10 | 0.08 | 89 | 1013.5 |
| 20260502130503 | 53 | 87 | 1.0 | 2.0 | 0.01 | 0.04 | 0.04 | 86 | 1012.7 |
| 20260502123503 | 52 | 292 | 1.0 | 2.0 | 0.01 | 0.04 | 0.03 | 86 | 1012.6 |
| 20260502122502 | 52 | 2 | 1.0 | 1.0 | 0.02 | 0.04 | 0.03 | 87 | 1012.2 |
| 20260502122002 | 52 | 357 | 1.0 | 2.0 | 0.02 | 0.04 | 0.03 | 87 | 1012.3 |
| 20260502120502 | 52 | 307 | 0.0 | 1.0 | 0.02 | 0.03 | 0.03 | 87 | 1012.4 |
| 20260502115503 | 52 | 57 | 0.0 | 0.0 | 0.02 | 0.03 | 0.02 | 87 | 1012.3 |
| 20260502115003 | 52 | 343 | 0.0 | 0.0 | 0.02 | 0.03 | 0.02 | 86 | 1012.4 |
| 20260502114502 | 52 | 348 | 1.0 | 1.0 | 0.02 | 0.02 | 0.02 | 86 | 1012.5 |
| 20260502113502 | 52 | 350 | 0.0 | 1.0 | 0.02 | 0.02 | 0.02 | 88 | 1012.4 |
| 20260502113004 | 52 | 327 | 0.0 | 1.0 | 0.02 | 0.02 | 0.02 | 88 | 1012.3 |
| 20260502112503 | 52 | 260 | 0.0 | 2.0 | 0.02 | 0.02 | 0.02 | 88 | 1012.5 |
| 20260502112003 | 53 | 210 | 0.0 | 0.0 | 0.01 | 0.02 | 0.01 | 88 | 1012.5 |
| 20260502111502 | 53 | 72 | 0.0 | 1.0 | 0.01 | 0.02 | 0.01 | 87 | 1012.6 |
| 20260502111003 | 53 | 304 | 1.0 | 1.0 | 0.01 | 0.02 | 0.01 | 86 | 1012.6 |
| 20260502110503 | 53 | 327 | 0.0 | 1.0 | 0.01 | 0.01 | 0.01 | 85 | 1012.5 |
| 20260502110003 | 53 | 349 | 0.0 | 1.0 | 0.01 | 0.01 | 0.01 | 85 | 1012.6 |
| 20260502105503 | 53 | 45 | 0.0 | 1.0 | 0.01 | 0.01 | 0.01 | 85 | 1012.6 |
| 20260502104502 | 53 | 328 | 1.0 | 1.0 | 0.00 | 0.01 | 0.00 | 84 | 1012.7 |
| 20260502104003 | 53 | 22 | 1.0 | 1.0 | 0.00 | 0.01 | 0.00 | 83 | 1012.6 |
| 20260502103503 | 53 | 1 | 0.0 | 1.0 | 0.00 | 0.01 | 0.00 | 84 | 1012.6 |
| 20260502103003 | 53 | 97 | 0.0 | 2.0 | 0.00 | 0.01 | 0.00 | 84 | 1012.7 |
| 20260502101503 | 53 | 27 | 1.0 | 2.0 | 0.00 | 0.01 | 0.00 | 86 | 1012.6 |
| 20260502101003 | 53 | 156 | 1.0 | 2.0 | 0.00 | 0.01 | 0.00 | 86 | 1012.5 |
| 20260502100502 | 53 | 7 | 0.0 | 1.0 | 0.00 | 0.01 | 0.00 | 87 | 1012.6 |
| 20260502091003 | 52 | 314 | 0.0 | 0.0 | 0.00 | 0.01 | 0.00 | 90 | 1012.5 |
| 20260502090503 | 52 | 314 | 0.0 | 1.0 | 0.00 | 0.01 | 0.00 | 90 | 1012.4 |
| 20260502071003 | 51 | 352 | 0.0 | 0.0 | 0.00 | 0.01 | 0.00 | 92 | 1011.9 |
| 20260502070502 | 51 | 352 | 0.0 | 0.0 | 0.00 | 0.01 | 0.00 | 92 | 1011.8 |
| 20260502070002 | 51 | 352 | 0.0 | 1.0 | 0.00 | 0.01 | 0.00 | 92 | 1011.8 |
| 20260502065003 | 51 | 332 | 0.0 | 0.0 | 0.00 | 0.01 | 0.00 | 92 | 1011.8 |
| 20260502064503 | 51 | 332 | 0.0 | 1.0 | 0.00 | 0.01 | 0.00 | 91 | 1011.9 |
| 20260502064003 | 51 | 306 | 1.0 | 1.0 | 0.00 | 0.01 | 0.00 | 91 | 1011.9 |
| 20260502063503 | 51 | 274 | 0.0 | 0.0 | 0.00 | 0.01 | 0.00 | 91 | 1011.8 |
| 20260502063003 | 51 | 274 | 0.0 | 0.0 | 0.00 | 0.01 | 0.00 | 91 | 1011.8 |
| 20260502062502 | 51 | 274 | 0.0 | 0.0 | 0.00 | 0.01 | 0.00 | 91 | 1011.9 |
| 20260502062003 | 51 | 274 | 0.0 | 0.0 | 0.00 | 0.01 | 0.00 | 91 | 1012.0 |
| 20260502061503 | 51 | 274 | 0.0 | 0.0 | 0.00 | 0.01 | 0.00 | 91 | 1012.0 |
| 20260502060003 | 51 | 274 | 0.0 | 0.0 | 0.00 | 0.01 | 0.00 | 90 | 1012.0 |
| 20260502055502 | 51 | 274 | 0.0 | 1.0 | 0.00 | 0.01 | 0.00 | 90 | 1012.1 |
| 20260502055003 | 51 | 288 | 1.0 | 1.0 | 0.00 | 0.01 | 0.00 | 90 | 1012.1 |
| 20260502054503 | 51 | 317 | 0.0 | 1.0 | 0.00 | 0.01 | 0.00 | 90 | 1012.1 |
| 20260502054003 | 51 | 219 | 0.0 | 0.0 | 0.00 | 0.01 | 0.00 | 90 | 1012.3 |
| 20260502053503 | 51 | 219 | 0.0 | 0.0 | 0.00 | 0.01 | 0.00 | 90 | 1012.2 |
| 20260502053003 | 51 | 219 | 0.0 | 0.0 | 0.00 | 0.01 | 0.00 | 90 | 1012.2 |
| 20260502052503 | 51 | 219 | 0.0 | 0.0 | 0.00 | 0.01 | 0.00 | 90 | 1012.3 |
| 20260502052003 | 51 | 219 | 0.0 | 0.0 | 0.00 | 0.01 | 0.00 | 90 | 1012.3 |
| 20260502051503 | 52 | 219 | 0.0 | 0.0 | 0.00 | 0.01 | 0.00 | 90 | 1012.5 |
| 20260502051003 | 52 | 219 | 0.0 | 1.0 | 0.00 | 0.01 | 0.00 | 90 | 1012.5 |
| 20260502050503 | 52 | 302 | 0.0 | 0.0 | 0.00 | 0.01 | 0.00 | 89 | 1012.5 |
| 20260502050004 | 52 | 302 | 0.0 | 1.0 | 0.00 | 0.01 | 0.00 | 89 | 1012.5 |
| 20260502045503 | 52 | 242 | 0.0 | 1.0 | 0.00 | 0.01 | 0.00 | 89 | 1012.6 |
| 20260502045003 | 52 | 304 | 0.0 | 0.0 | 0.00 | 0.01 | 0.00 | 89 | 1012.6 |
| 20260502044503 | 51 | 287 | 0.0 | 1.0 | 0.00 | 0.01 | 0.00 | 90 | 1012.5 |
| 20260502044004 | 51 | 355 | 0.0 | 1.0 | 0.00 | 0.01 | 0.00 | 90 | 1012.6 |
| 20260502043503 | 52 | 344 | 0.0 | 0.0 | 0.00 | 0.01 | 0.00 | 89 | 1012.6 |
| 20260502043002 | 52 | 344 | 0.0 | 0.0 | 0.00 | 0.01 | 0.00 | 89 | 1012.6 |
| 20260502042503 | 52 | 344 | 0.0 | 1.0 | 0.00 | 0.01 | 0.00 | 89 | 1012.6 |
| 20260502042004 | 52 | 337 | 0.0 | 0.0 | 0.00 | 0.01 | 0.00 | 89 | 1012.7 |
| 20260502041503 | 52 | 337 | 1.0 | 1.0 | 0.00 | 0.01 | 0.00 | 89 | 1012.7 |
| 20260502041003 | 52 | 220 | 0.0 | 0.0 | 0.00 | 0.01 | 0.00 | 89 | 1012.9 |
| 20260502040503 | 52 | 241 | 0.0 | 0.0 | 0.00 | 0.01 | 0.00 | 88 | 1012.9 |
| 20260502035502 | 52 | 335 | 0.0 | 1.0 | 0.00 | 0.00 | 0.00 | 88 | 1012.9 |
| 20260502035003 | 52 | 324 | 1.0 | 1.0 | 0.00 | 0.00 | 0.00 | 88 | 1012.9 |
| 20260502034003 | 52 | 38 | 0.0 | 0.0 | 0.00 | 0.00 | 0.00 | 88 | 1012.9 |
| 20260502033503 | 52 | 38 | 0.0 | 0.0 | 0.00 | 0.00 | 0.00 | 87 | 1012.9 |
| 20260502033004 | 52 | 38 | 0.0 | 0.0 | 0.00 | 0.00 | 0.00 | 87 | 1012.8 |
| 20260502032503 | 52 | 38 | 0.0 | 0.0 | 0.00 | 0.00 | 0.00 | 87 | 1012.9 |
| 20260502031503 | 53 | 147 | 0.0 | 0.0 | 0.00 | 0.00 | 0.00 | 86 | 1012.9 |
| 20260502031003 | 53 | 147 | 0.0 | 0.0 | 0.00 | 0.00 | 0.00 | 86 | 1013.0 |
| 20260502030503 | 53 | 147 | 0.0 | 1.0 | 0.00 | 0.00 | 0.00 | 85 | 1013.0 |
| 20260502030003 | 53 | 115 | 0.0 | 0.0 | 0.00 | 0.00 | 0.00 | 85 | 1013.0 |
| 20260502025503 | 53 | 115 | 0.0 | 1.0 | 0.00 | 0.00 | 0.00 | 84 | 1013.1 |
| 20260502025003 | 53 | 47 | 0.0 | 0.0 | 0.00 | 0.00 | 0.00 | 84 | 1013.1 |
| 20260502024504 | 53 | 47 | 0.0 | 0.0 | 0.00 | 0.00 | 0.00 | 84 | 1013.0 |
| 20260502023504 | 53 | 106 | 0.0 | 1.0 | 0.00 | 0.00 | 0.00 | 84 | 1013.0 |
| 20260502023004 | 53 | 177 | 0.0 | 1.0 | 0.00 | 0.00 | 0.00 | 84 | 1013.0 |
| 20260502022503 | 53 | 187 | 0.0 | 1.0 | 0.00 | 0.00 | 0.00 | 84 | 1013.1 |
| 20260502022003 | 53 | 89 | 0.0 | 0.0 | 0.00 | 0.00 | 0.00 | 84 | 1013.2 |
| 20260502021503 | 53 | 190 | 0.0 | 1.0 | 0.00 | 0.00 | 0.00 | 83 | 1013.2 |
| 20260502021003 | 53 | 92 | 0.0 | 1.0 | 0.00 | 0.00 | 0.00 | 83 | 1013.1 |
| 20260502020503 | 53 | 86 | 0.0 | 1.0 | 0.00 | 0.00 | 0.00 | 83 | 1013.1 |
| 20260502020003 | 53 | 215 | 0.0 | 1.0 | 0.00 | 0.00 | 0.00 | 83 | 1013.2 |
| 20260502015503 | 53 | 307 | 0.0 | 0.0 | 0.00 | 0.00 | 0.00 | 82 | 1013.1 |
| 20260502015003 | 53 | 107 | 0.0 | 0.0 | 0.00 | 0.00 | 0.00 | 82 | 1013.1 |
| 20260502014004 | 53 | 71 | 0.0 | 1.0 | 0.00 | 0.00 | 0.00 | 82 | 1013.1 |
| 20260502013503 | 53 | 48 | 0.0 | 1.0 | 0.00 | 0.00 | 0.00 | 82 | 1013.0 |
| 20260502013003 | 53 | 249 | 0.0 | 1.0 | 0.00 | 0.00 | 0.00 | 82 | 1013.0 |
| 20260502012503 | 53 | 153 | 0.0 | 1.0 | 0.00 | 0.00 | 0.00 | 83 | 1013.0 |
| 20260502012003 | 53 | 129 | 0.0 | 1.0 | 0.00 | 0.00 | 0.00 | 82 | 1013.1 |
| 20260502011503 | 53 | 353 | 0.0 | 1.0 | 0.00 | 0.00 | 0.00 | 82 | 1013.1 |
| 20260502011004 | 53 | 283 | 0.0 | 1.0 | 0.00 | 0.00 | 0.00 | 82 | 1013.0 |
| 20260502010004 | 53 | 76 | 0.0 | 1.0 | 0.00 | 0.00 | 0.00 | 80 | 1012.8 |
| 20260502005503 | 53 | 341 | 0.0 | 1.0 | 0.00 | 0.00 | 0.00 | 80 | 1012.8 |
| 20260502005003 | 53 | 52 | 0.0 | 1.0 | 0.00 | 0.00 | 0.00 | 79 | 1012.9 |
| 20260502004503 | 53 | 93 | 0.0 | 1.0 | 0.00 | 0.00 | 0.00 | 78 | 1012.9 |
| 20260502004004 | 53 | 245 | 0.0 | 2.0 | 0.00 | 0.00 | 0.00 | 78 | 1012.7 |
| 20260502003004 | 54 | 139 | 0.0 | 0.0 | 0.00 | 0.00 | 0.00 | 76 | 1012.5 |
| 20260502002503 | 54 | 351 | 0.0 | 0.0 | 0.00 | 0.00 | 0.00 | 76 | 1012.5 |
| 20260502002003 | 54 | 191 | 1.0 | 3.0 | 0.00 | 0.00 | 0.00 | 76 | 1012.4 |
| 20260502001503 | 55 | 204 | 0.0 | 2.0 | 0.00 | 0.00 | 0.00 | 75 | 1012.4 |
| 20260502001003 | 55 | 257 | 1.0 | 5.0 | 0.00 | 0.00 | 0.00 | 75 | 1012.5 |
| 20260502000503 | 55 | 166 | 1.0 | 3.0 | 0.00 | 0.00 | 0.00 | 74 | 1012.5 |
| 20260502000003 | 55 | 97 | 1.0 | 2.0 | 0.00 | 0.00 | 0.00 | 76 | 1012.4 |
| 20260501235503 | 55 | 46 | 1.0 | 3.0 | 0.00 | 0.00 | 0.00 | 75 | 1012.5 |
| 20260501235003 | 56 | 28 | 1.0 | 2.0 | 0.00 | 0.00 | 0.00 | 75 | 1012.5 |
| 20260501234503 | 56 | 186 | 0.0 | 1.0 | 0.00 | 0.00 | 0.00 | 74 | 1012.5 |
| 20260501234004 | 56 | 233 | 0.0 | 1.0 | 0.00 | 0.00 | 0.00 | 74 | 1012.5 |